This is the latest recevied weather packets stored in our database for station/object N1HQ. If no packets are shown the sender has not sent any weather packets the latest 1 day(s).
| Time | Temp. | Humidity | Pressure | Rain* | Wind** | Luminosity | Snow |
|---|---|---|---|---|---|---|---|
| 1778001438 | 26.67° C | 65% | 1014 hPa | 0 mm | 1.79 m/s, 127° | - | - |
| 1778001193 | 26.67° C | 65% | 1014 hPa | 0 mm | 1.34 m/s, 148° | - | - |
| 1778000943 | 26.67° C | 64% | 1014.1 hPa | 0 mm | 1.79 m/s, 142° | - | - |
| 1778000695 | 26.67° C | 64% | 1014.1 hPa | 0 mm | 1.79 m/s, 163° | - | - |
| 1778000435 | 26.67° C | 64% | 1014.2 hPa | 0 mm | 1.34 m/s, 222° | - | - |
| 1778000188 | 26.67° C | 63% | 1014.2 hPa | 0 mm | 1.34 m/s, 200° | - | - |
| 1777999888 | 26.67° C | 65% | 1014.1 hPa | 0 mm | 1.34 m/s, 238° | - | - |
| 1777999628 | 26.67° C | 64% | 1014.1 hPa | 0 mm | 1.79 m/s, 234° | - | - |
| 1777999375 | 26.67° C | 65% | 1014.1 hPa | 0 mm | 1.79 m/s, 133° | - | - |
| 1777999095 | 26.67° C | 66% | 1014.1 hPa | 0 mm | 1.79 m/s, 215° | - | - |
| 1777998815 | 26.67° C | 64% | 1013.9 hPa | 0 mm | 1.34 m/s, 155° | - | - |
| 1777998528 | 26.67° C | 65% | 1014 hPa | 0 mm | 1.34 m/s, 142° | - | - |
| 1777998228 | 26.11° C | 65% | 1013.9 hPa | 0 mm | 1.34 m/s, 111° | - | - |
| 1777997968 | 26.11° C | 66% | 1013.9 hPa | 0 mm | 1.34 m/s, 155° | - | - |
| 1777997670 | 26.11° C | 65% | 1013.8 hPa | 0 mm | 1.34 m/s, 98° | - | - |
| 1777997423 | 25.56° C | 66% | 1013.9 hPa | 0 mm | 1.79 m/s, 167° | - | - |
| 1777997172 | 25.56° C | 65% | 1014.1 hPa | 0 mm | 1.79 m/s, 105° | - | - |
| 1777996893 | 25.56° C | 66% | 1014.1 hPa | 0 mm | 1.79 m/s, 112° | - | - |
| 1777996652 | 25° C | 67% | 1014.2 hPa | 0 mm | 1.79 m/s, 107° | - | - |
| 1777996365 | 25.56° C | 66% | 1014.3 hPa | 0 mm | 1.79 m/s, 153° | - | - |
| 1777995813 | 25.56° C | 64% | 1014.2 hPa | 0 mm | 1.34 m/s, 92° | - | - |
| 1777995528 | 25.56° C | 64% | 1014.1 hPa | 0 mm | 1.34 m/s, 148° | - | - |
| 1777995003 | 25° C | 65% | 1014.2 hPa | 0 mm | 1.79 m/s, 104° | - | - |
| 1777994708 | 25° C | 64% | 1014.3 hPa | 0 mm | 1.34 m/s, 89° | - | - |
| 1777994412 | 25° C | 65% | 1014.1 hPa | 0 mm | 0.89 m/s, 146° | - | - |
* Rain latest hour (hover to see other rain measurements)
** Current wind speed in m/s (hover to see current wind gust speed)